User: anonymous   Login
Location: Ballingbuur
(53.0000°N, 5.7667°E)
Time: 07:34:59
(UTC+00:00)
Language:

FENGYUN 1C DEB - Orbit

View from above orbital plane
View from above orbital plane
View from above satellite
View from above satellite

Ground track
Ground track

The orbit data is extracted from the following two-line orbital elements,

1 37402U 99025EFU 21164.69853917  .00002934  00000-0  65324-3 0  9994
2 37402  99.3706 336.6858 0027695 147.4678 212.8231 14.57611386402352
Epoch (UTC): 13 June 2021 16:45:53
Eccentricity: 0.0027695
inclination: 99.3706°
perigee height: 681 km
apogee height: 720 km
right ascension of ascending node: 336.6858°
argument of perigee: 147.4678°
revolutions per day: 14.57611386
mean anomaly at epoch: 212.8231°
orbit number at epoch: 40235

The dashed part of the orbit path shows where the satellite is in the earth's shadow,  

DLR